sat.trackr.live / text

‹ back to catalog

GEESAT-2 04

NORAD 58908 · 2024-023D

PAYLOAD ACTIVE UNKNOWN

§ Identity

Operator
Country
PRC
Launch date
2024-02-02
Launch site
XICLF
Launch vehicle
Mass (kg)
RCS (m²)

External: N2YO · Heavens-Above · Gunter

§ Orbital elements

Epoch: 2026-09-22T22:07:08.681664Z

Period
96.16 min
Inclination
49.9928°
Eccentricity
0.0006157
Mean motion
14.97519644 rev/d
Perigee alt
570.3 km
Apogee alt
578.8 km
Semi-major
6,952.7 km
B*
1.2826e-4
RAAN
220.4709°
Arg perigee
59.3149°
Mean anomaly
300.8402°
Rev number
14,397

§ Raw data

GEESAT-2 041 58908U 24023D   26265.92162826  .00001256  00000+0  12826-3 0  99932 58908  49.9928 220.4709 0006157  59.3149 300.8402 14.97519644143978

JSON: /api/v1/satellites/58908 · /tle

For live sub-satellite position, see the globe view (requires WebGL).

§ Visibility from observer

Set your observer location to see the next 7 days of passes ≥ 10°. The values pass through the URL so the page stays shareable.

No JS? Fill the form by hand. The geolocation button needs JavaScript.